Regional Weather Roundup
Issued by NWS Kansas City/Pleasant Hill, MO

Home | Current Version | Previous Version | Graphics & Text | Print | Product List | Glossary Off
Versions: 1 2 3 4 5 6 7 8 9 10 11 12 13 14 15 16 17 18 19 20 21 22 23 24 25 26 27 28 29 30 31 32 33 34 35 36 37 38 39 40 41 42 43 44 45 46 47 48 49 50

000
ASUS43 KEAX 051204
RWREAX

WEATHER ROUNDUP FOR EASTERN KANSAS AND NORTHWEST MISSOURI
NATIONAL WEATHER SERVICE KANSAS CITY/PLEASANT HILL MO
700 AM CDT SUN JUL 05 2015

KSZ040-057-103>105-MOZ028-029-037-043-051300-
...KANSAS CITY METROPOLITAN AREA...

CITY           SKY/WX    TMP DP  RH WIND       PRES   REMARKS
K.C. INTL      MOCLDY    69  66  90 SE9       29.98S FOG
6HR MIN TEMP:  67; 6HR MAX TEMP:  69;

K.C. DOWNTOWN  PTCLDY    72  67  84 S5        29.98R
6HR MIN TEMP:  70; 6HR MAX TEMP:  76;

LEES SUMMIT    SUNNY     69  66  90 S8        30.01R FOG
6HR MIN TEMP:  69; 6HR MAX TEMP:  71;

OLATHE - IXD   PTCLDY    69  66  90 SE8       30.00R FOG
6HR MIN TEMP:  67; 6HR MAX TEMP:  70;

OLATHE - OJC   PTCLDY    67  66  97 S8        29.99R FOG
6HR MIN TEMP:  66; 6HR MAX TEMP:  69;

LAWRENCE       CLEAR     67  64  90 E7        29.98R FOG

$$

MOZ001>008-011>017-020>025-030>033-038>040-044>046-053-054-051300-
...NORTHERN AND CENTRAL MISSOURI...

CITY           SKY/WX    TMP DP  RH WIND       PRES   REMARKS
ST. JOSEPH     PTCLDY    70  65  84 S7        29.97S HAZE
6HR MIN TEMP:  67; 6HR MAX TEMP:  70;

MOSBY          MOSUNNY   68  64  88 CALM      30.00R FOG
HARRISONVILLE  CLEAR     70  68  94 CALM      30.03S FOG
WHITEMAN AFB   SUNNY     69  68  99 S7        30.01R FOG
6HR MIN TEMP:  67; 6HR MAX TEMP:  69;

CLINTON        SUNNY     72  72 100 S5        30.02R FOG
SEDALIA        SUNNY     69  66  90 S6        30.03S FOG
6HR MIN TEMP:  67; 6HR MAX TEMP:  70;

WARSAW         NOT AVBL
CHILLICOTHE      N/A     66  64  93 SE3       30.02R
6HR MIN TEMP:  64; 6HR MAX TEMP:  67;

KIRKSVILLE     SUNNY     66  63  90 S6        30.03S FOG
6HR MIN TEMP:  61; 6HR MAX TEMP:  66; 6HR PCP: TRACE;


$$

MOZ041-047>049-056>058-063>065-088>090-097-051300-
...EASTERN AND SOUTHERN MISSOURI...

CITY           SKY/WX    TMP DP  RH WIND       PRES   REMARKS
ST. LOUIS INTL SUNNY     70  63  78 E3        30.06R HAZE
6HR MIN TEMP:  67; 6HR MAX TEMP:  72;

SPIRIT OF STL  SUNNY     65  64  97 CALM      30.05R FOG
COLUMBIA       SUNNY     67  66  97 SE8       30.04S FOG
JEFFERSON CITY SUNNY     68  67  96 E5        30.03F FOG
MEXICO         SUNNY    N/A N/A N/A SE5       30.04S FOG
ROLLA          FOG       67  66  97 S8        30.06R VSB 1/2
LEBANON        CLOUDY    70  68  94 S7        30.07R FOG
OSAGE BEACH    CLOUDY    68  66  94 S7        30.04S VSB 1/4
SPRINGFIELD    CLOUDY    71  69  93 S12       30.05R FOG
BRANSON        FOG       68  68 100 CALM      30.07S VSB 1/8
JOPLIN         CLEAR     72  69  90 S9        30.02R
WEST PLAINS    FOG       70  68  93 CALM      30.10R VSB 1/4
MALDEN         FOG       72  70  94 CALM      30.08R VSB<1/4

$$

IAZ060-094-KSZ022-034>040-054-083-096-NEZ052-066-093-051300-
...KANSAS...SOUTHEAST NEBRASKA AND IOWA...

CITY           SKY/WX    TMP DP  RH WIND       PRES   REMARKS
TOPEKA         CLEAR     70  66  87 E5        29.96S FOG
6HR MIN TEMP:  68; 6HR MAX TEMP:  70;

MANHATTAN      PTCLDY    72  68  87 S7        29.92F
EMPORIA        CLEAR     70  67  90 SE10      29.96S
CHANUTE        PTCLDY    71  69  93 SE9       29.99R FOG
WICHITA        MOCLDY    74  69  85 S9        29.93S
OMAHA          CLOUDY    70  64  81 S12       29.93R
LINCOLN        MOCLDY    71  65  81 S10       29.91R HAZE
FALLS CITY     PTCLDY    67  64  90 S8        29.93F FOG
LAMONI         MOSUNNY   66  63  90 S7        30.00R
DES MOINES     CLOUDY    66  61  84 S8        29.98S

$$



USA.gov is the U.S. government's official web portal to all federal, state and local government web resources and services.